Location: Cussy
(47.0410°N, 4.6412°E)
Time: 14:07:42
(UTC+00:00)

NOSS 3-3 (C) - Visible Passes

Search period start: 11 April 2021 00:00
Search period end: 21 April 2021 00:00
Orbit: 815 x 1397 km, 63.4° (Epoch: 19 March)

Date Brightness Start Highest point End Pass type
(mag) Time Alt. Az. Time Alt. Az. Time Alt. Az.
11 Apr 6.0 02:06:43 11° SE 02:09:55 17° ESE 02:13:41 10° ENE visible
11 Apr 4.0 03:54:10 12° SW 03:59:40 89° SE 04:06:19 10° NE visible
12 Apr 4.3 03:10:58 20° SSW 03:14:58 59° ESE 03:21:22 10° NE visible
13 Apr 4.9 02:27:43 24° SSE 02:30:26 37° ESE 02:36:15 10° NE visible
13 Apr 4.4 04:15:22 10° WSW 04:21:06 51° NW 04:27:41 10° NE visible
14 Apr 5.4 01:44:25 20° SE 01:46:03 23° ESE 01:50:49 10° ENE visible
14 Apr 4.0 03:31:52 19° SW 03:36:08 73° NW 03:42:50 10° NE visible
15 Apr 6.0 01:01:05 13° ESE 01:01:49 13° ESE 01:04:36 10° ENE visible
15 Apr 3.9 02:48:31 32° SSW 02:51:20 77° SE 02:57:56 10° NE visible
16 Apr 4.4 02:05:07 39° SSE 02:06:43 49° ESE 02:12:55 10° NE visible
16 Apr 4.7 03:52:33 12° WSW 03:57:45 42° NW 04:04:12 10° NE visible
17 Apr 5.0 01:21:42 30° ESE 01:22:15 31° ESE 01:27:43 10° NE visible
17 Apr 4.2 03:09:07 24° WSW 03:12:41 58° NW 03:19:20 10° NE visible
18 Apr 5.7 00:38:14 19° ESE 00:38:14 19° ESE 00:42:05 10° ENE visible
18 Apr 3.9 02:25:39 43° SW 02:27:47 84° NW 02:34:28 10° NE visible
18 Apr 5.4 04:14:27 10° W 04:19:44 28° NNW 04:25:40 10° NE visible
19 Apr 3.9 01:42:09 57° SSE 01:43:04 65° ESE 01:49:32 10° NE visible
19 Apr 5.0 03:29:34 13° W 03:34:26 36° NNW 03:40:43 10° NE visible
20 Apr 4.6 00:58:37 41° ESE 00:58:37 41° ESE 01:04:27 10° NE visible
20 Apr 4.6 02:46:02 25° W 02:49:17 48° NW 02:55:50 10° NE visible
